{"data":{"norad_id":57636,"intl_designator":"2023-122E","name":"STARLINK-30330","alt_names":[],"object_type":"PAYLOAD","status":"ACTIVE","operator":null,"country":"US","launch_date":"2023-08-17","launch_site_code":"AFETR","launch_vehicle":null,"mission":null,"orbit_class":"UNKNOWN","rcs_meters":null,"size_class":null,"mass_kg":null,"dimensions":null,"purposes":["comms"],"wikipedia_slug":null,"has_3d_model":false,"image_url":null,"decayed_at":null,"tle_current":{"epoch":"2026-09-19T21:24:28.527840Z","epoch_age_seconds":183866,"freshness":"STALE","line1":"1 57636U 23122E   26262.89199685  .00000982  00000+0  45193-4 0  9994","line2":"2 57636  43.0019  76.0955 0001261 265.7111  94.3597 15.27578682171907","mean_motion":15.27578682,"eccentricity":0.0001261,"inclination_deg":43.0019,"raan_deg":76.0955,"arg_perigee_deg":265.7111,"mean_anomaly_deg":94.3597,"bstar":4.5193e-5,"rev_number":17190,"period_min":94.266830047318,"perigee_km":482.18784654427,"apogee_km":483.91823867301,"semimajor_km":6861.1900426086,"source":"CELESTRAK","updated_at":"2026-09-21T09:00:33.665776Z"}}}